| time (UTC) | temp C | wind direction | speed KPH | gust KPH | rain 1hr cm | rain 24hr cm | rain mn cm | humidity % | barometer mb |
| 20260505093101 | 8 | 207 | 4.8 | 8.0 | 0.00 | 0.00 | 0.00 | 82 | 1015.7 |
| 20260505092600 | 8 | 206 | 3.2 | 6.4 | 0.00 | 0.00 | 0.00 | 82 | 1015.8 |
| 20260505092100 | 8 | 206 | 3.2 | 6.4 | 0.00 | 0.00 | 0.00 | 82 | 1015.9 |
| 20260505091600 | 7 | 206 | 3.2 | 6.4 | 0.00 | 0.00 | 0.00 | 83 | 1015.9 |
| 20260505091058 | 7 | 206 | 1.6 | 4.8 | 0.00 | 0.00 | 0.00 | 82 | 1015.9 |
| 20260505090557 | 7 | 206 | 1.6 | 3.2 | 0.00 | 0.00 | 0.00 | 82 | 1015.9 |
| 20260505090058 | 8 | 206 | 0.0 | 3.2 | 0.00 | 0.00 | 0.00 | 81 | 1015.8 |
| 20260505085555 | 8 | 206 | 0.0 | 3.2 | 0.00 | 0.00 | 0.00 | 80 | 1015.8 |
| 20260505085055 | 8 | 206 | 0.0 | 0.0 | 0.00 | 0.00 | 0.00 | 79 | 1015.8 |
| 20260505084602 | 8 | 206 | 0.0 | 3.2 | 0.00 | 0.00 | 0.00 | 78 | 1015.7 |
| 20260505084054 | 8 | 206 | 0.0 | 3.2 | 0.00 | 0.00 | 0.00 | 77 | 1015.7 |
| 20260505083549 | 9 | 206 | 0.0 | 1.6 | 0.00 | 0.00 | 0.00 | 75 | 1015.7 |
| 20260505083103 | 9 | 206 | 0.0 | 1.6 | 0.00 | 0.00 | 0.00 | 74 | 1015.8 |
| 20260505082552 | 10 | 206 | 0.0 | 8.0 | 0.00 | 0.00 | 0.00 | 74 | 1015.7 |
| 20260505082048 | 10 | 206 | 1.6 | 8.0 | 0.00 | 0.00 | 0.00 | 72 | 1015.7 |
| 20260505081548 | 10 | 207 | 1.6 | 4.8 | 0.00 | 0.00 | 0.00 | 72 | 1015.6 |
| 20260505081048 | 10 | 206 | 0.0 | 4.8 | 0.00 | 0.00 | 0.00 | 71 | 1015.5 |
| 20260505080548 | 11 | 206 | 0.0 | 8.0 | 0.00 | 0.00 | 0.00 | 71 | 1015.4 |
| 20260505080047 | 10 | 206 | 1.6 | 8.0 | 0.00 | 0.00 | 0.00 | 71 | 1015.5 |
| 20260505075551 | 10 | 204 | 1.6 | 6.4 | 0.00 | 0.00 | 0.00 | 72 | 1015.3 |
| 20260505075046 | 10 | 204 | 0.0 | 9.7 | 0.00 | 0.00 | 0.00 | 72 | 1015.2 |
| 20260505074546 | 10 | 195 | 3.2 | 9.7 | 0.00 | 0.00 | 0.00 | 74 | 1015.1 |
| 20260505074045 | 9 | 193 | 3.2 | 6.4 | 0.00 | 0.00 | 0.00 | 75 | 1015.1 |
| 20260505073545 | 9 | 192 | 1.6 | 4.8 | 0.00 | 0.00 | 0.00 | 75 | 1015.0 |
| 20260505073048 | 9 | 192 | 3.2 | 4.8 | 0.00 | 0.00 | 0.00 | 74 | 1015.1 |
| 20260505072541 | 10 | 192 | 1.6 | 4.8 | 0.00 | 0.00 | 0.00 | 73 | 1015.0 |
| 20260505072043 | 10 | 192 | 1.6 | 4.8 | 0.00 | 0.00 | 0.00 | 72 | 1015.0 |
| 20260505071540 | 10 | 192 | 0.0 | 6.4 | 0.00 | 0.00 | 0.00 | 70 | 1015.1 |
| 20260505071038 | 10 | 192 | 1.6 | 6.4 | 0.00 | 0.00 | 0.00 | 69 | 1015.1 |
| 20260505070537 | 11 | 192 | 0.0 | 1.6 | 0.00 | 0.00 | 0.00 | 68 | 1015.2 |
| 20260505070035 | 11 | 191 | 0.0 | 3.2 | 0.00 | 0.00 | 0.00 | 66 | 1015.2 |
| 20260505065534 | 12 | 191 | 0.0 | 3.2 | 0.00 | 0.00 | 0.00 | 64 | 1015.2 |
| 20260505065032 | 12 | 191 | 0.0 | 3.2 | 0.00 | 0.00 | 0.00 | 63 | 1015.2 |
| 20260505064537 | 12 | 191 | 0.0 | 8.0 | 0.00 | 0.00 | 0.00 | 62 | 1015.2 |
| 20260505064030 | 13 | 191 | 0.0 | 8.0 | 0.00 | 0.00 | 0.00 | 61 | 1015.2 |
| 20260505063529 | 13 | 209 | 3.2 | 9.7 | 0.00 | 0.00 | 0.00 | 61 | 1015.3 |
| 20260505063029 | 13 | 198 | 4.8 | 12.9 | 0.00 | 0.00 | 0.00 | 61 | 1015.3 |
| 20260505062529 | 13 | 229 | 8.0 | 12.9 | 0.00 | 0.00 | 0.00 | 61 | 1015.4 |
| 20260505062031 | 13 | 196 | 3.2 | 11.3 | 0.00 | 0.00 | 0.00 | 60 | 1015.3 |
| 20260505061528 | 13 | 236 | 1.6 | 11.3 | 0.00 | 0.00 | 0.00 | 60 | 1015.4 |
| 20260505055522 | 13 | 205 | 1.6 | 11.3 | 0.00 | 0.00 | 0.00 | 59 | 1015.4 |
| 20260505055022 | 13 | 188 | 6.4 | 16.1 | 0.00 | 0.00 | 0.00 | 59 | 1015.5 |
| 20260505054540 | 13 | 205 | 6.4 | 16.1 | 0.00 | 0.00 | 0.00 | 59 | 1015.4 |
| 20260505054020 | 13 | 157 | 3.2 | 17.7 | 0.00 | 0.00 | 0.00 | 58 | 1015.4 |
| 20260505053521 | 13 | 167 | 6.4 | 17.7 | 0.00 | 0.00 | 0.00 | 58 | 1015.4 |
| 20260505053018 | 13 | 182 | 8.0 | 16.1 | 0.00 | 0.00 | 0.00 | 58 | 1015.3 |
| 20260505052517 | 13 | 157 | 6.4 | 16.1 | 0.00 | 0.00 | 0.00 | 58 | 1015.4 |
| 20260505052017 | 13 | 178 | 8.0 | 16.1 | 0.00 | 0.00 | 0.00 | 59 | 1015.4 |
| 20260505051516 | 13 | 182 | 6.4 | 12.9 | 0.00 | 0.00 | 0.00 | 58 | 1015.3 |
| 20260505051015 | 13 | 186 | 6.4 | 12.9 | 0.00 | 0.00 | 0.00 | 58 | 1015.3 |
| 20260505050513 | 13 | 185 | 6.4 | 12.9 | 0.00 | 0.00 | 0.00 | 58 | 1015.4 |
| 20260505041506 | 14 | 197 | 4.8 | 12.9 | 0.00 | 0.00 | 0.00 | 56 | 1015.5 |
| 20260505041004 | 15 | 220 | 6.4 | 17.7 | 0.00 | 0.00 | 0.00 | 55 | 1015.6 |
| 20260505040504 | 15 | 182 | 8.0 | 22.5 | 0.00 | 0.00 | 0.00 | 55 | 1015.5 |
| 20260505040004 | 14 | 192 | 6.4 | 16.1 | 0.00 | 0.00 | 0.00 | 55 | 1015.7 |
| 20260505035502 | 15 | 211 | 6.4 | 16.1 | 0.00 | 0.00 | 0.00 | 55 | 1015.6 |
| 20260505035002 | 15 | 224 | 9.7 | 19.3 | 0.00 | 0.00 | 0.00 | 55 | 1015.7 |
| 20260505034502 | 15 | 188 | 11.3 | 19.3 | 0.00 | 0.00 | 0.00 | 54 | 1015.7 |
| 20260505034102 | 15 | 219 | 11.3 | 19.3 | 0.00 | 0.00 | 0.00 | 54 | 1015.8 |
| 20260505033501 | 15 | 189 | 4.8 | 16.1 | 0.00 | 0.00 | 0.00 | 54 | 1015.9 |
| 20260505033001 | 15 | 165 | 6.4 | 16.1 | 0.00 | 0.00 | 0.00 | 54 | 1016.0 |
| 20260505032502 | 15 | 187 | 9.7 | 19.3 | 0.00 | 0.00 | 0.00 | 53 | 1016.0 |
| 20260505032100 | 15 | 175 | 9.7 | 19.3 | 0.00 | 0.00 | 0.00 | 53 | 1016.1 |
| 20260505031606 | 15 | 229 | 11.3 | 19.3 | 0.00 | 0.00 | 0.00 | 53 | 1016.0 |
| 20260505031101 | 15 | 178 | 8.0 | 19.3 | 0.00 | 0.00 | 0.00 | 53 | 1016.0 |
| 20260505030602 | 15 | 188 | 9.7 | 16.1 | 0.00 | 0.00 | 0.00 | 53 | 1016.0 |
| 20260505030124 | 15 | 232 | 9.7 | 24.1 | 0.00 | 0.00 | 0.00 | 52 | 1016.2 |
| 20260505025600 | 15 | 190 | 12.9 | 24.1 | 0.00 | 0.00 | 0.00 | 52 | 1016.2 |
| 20260505025101 | 15 | 215 | 9.7 | 22.5 | 0.00 | 0.00 | 0.00 | 52 | 1016.2 |
| 20260505024612 | 15 | 177 | 8.0 | 16.1 | 0.00 | 0.00 | 0.00 | 53 | 1016.3 |
| 20260505024058 | 15 | 185 | 8.0 | 17.7 | 0.00 | 0.00 | 0.00 | 53 | 1016.3 |
| 20260505023559 | 15 | 219 | 8.0 | 17.7 | 0.00 | 0.00 | 0.00 | 53 | 1016.3 |
| 20260505023058 | 15 | 209 | 6.4 | 14.5 | 0.00 | 0.00 | 0.00 | 52 | 1016.2 |
| 20260505022603 | 15 | 205 | 6.4 | 16.1 | 0.00 | 0.00 | 0.00 | 52 | 1016.1 |
| 20260505022059 | 15 | 218 | 8.0 | 17.7 | 0.00 | 0.00 | 0.00 | 52 | 1016.3 |
| 20260505021559 | 15 | 210 | 6.4 | 19.3 | 0.00 | 0.00 | 0.00 | 52 | 1016.3 |
| 20260505021058 | 15 | 203 | 6.4 | 19.3 | 0.00 | 0.00 | 0.00 | 52 | 1016.2 |
| 20260505020558 | 16 | 192 | 9.7 | 22.5 | 0.00 | 0.00 | 0.00 | 52 | 1016.2 |
| 20260505020108 | 16 | 192 | 9.7 | 16.1 | 0.00 | 0.00 | 0.00 | 52 | 1016.1 |
| 20260505015557 | 16 | 198 | 9.7 | 22.5 | 0.00 | 0.00 | 0.00 | 53 | 1016.1 |
| 20260505015100 | 16 | 202 | 12.9 | 22.5 | 0.00 | 0.00 | 0.00 | 53 | 1016.1 |
| 20260505014558 | 16 | 188 | 9.7 | 19.3 | 0.00 | 0.00 | 0.00 | 54 | 1016.2 |
| 20260505014056 | 16 | 188 | 8.0 | 16.1 | 0.00 | 0.00 | 0.00 | 54 | 1016.2 |
| 20260505013556 | 16 | 200 | 8.0 | 12.9 | 0.00 | 0.00 | 0.00 | 54 | 1016.2 |
| 20260505013056 | 16 | 153 | 4.8 | 11.3 | 0.00 | 0.00 | 0.00 | 53 | 1016.1 |
| 20260505012558 | 16 | 178 | 6.4 | 11.3 | 0.00 | 0.00 | 0.00 | 53 | 1016.1 |
| 20260505012056 | 16 | 167 | 8.0 | 16.1 | 0.00 | 0.00 | 0.00 | 53 | 1016.1 |
| 20260505011601 | 16 | 176 | 8.0 | 16.1 | 0.00 | 0.00 | 0.00 | 52 | 1016.1 |
| 20260505011055 | 16 | 185 | 9.7 | 16.1 | 0.00 | 0.00 | 0.00 | 52 | 1016.0 |
| 20260505010555 | 16 | 161 | 11.3 | 19.3 | 0.00 | 0.00 | 0.00 | 52 | 1016.0 |
| 20260505010110 | 16 | 202 | 12.9 | 25.7 | 0.00 | 0.00 | 0.00 | 51 | 1015.9 |
| 20260505005555 | 16 | 220 | 11.3 | 27.4 | 0.00 | 0.00 | 0.00 | 52 | 1015.9 |
| 20260505005056 | 16 | 192 | 9.7 | 19.3 | 0.00 | 0.00 | 0.00 | 52 | 1015.8 |
| 20260505004624 | 16 | 184 | 8.0 | 19.3 | 0.00 | 0.00 | 0.00 | 52 | 1015.7 |
| 20260505004054 | 16 | 211 | 6.4 | 17.7 | 0.00 | 0.00 | 0.00 | 53 | 1015.6 |
| 20260505003555 | 16 | 178 | 8.0 | 19.3 | 0.00 | 0.00 | 0.00 | 53 | 1015.6 |
| 20260505003059 | 16 | 188 | 9.7 | 14.5 | 0.00 | 0.00 | 0.00 | 53 | 1015.5 |
| 20260505002555 | 16 | 172 | 6.4 | 14.5 | 0.00 | 0.00 | 0.00 | 53 | 1015.5 |
| 20260505002054 | 17 | 163 | 9.7 | 14.5 | 0.00 | 0.00 | 0.00 | 53 | 1015.5 |
| 20260505001554 | 17 | 178 | 3.2 | 14.5 | 0.00 | 0.00 | 0.00 | 54 | 1015.5 |
| 20260505001053 | 17 | 172 | 6.4 | 14.5 | 0.00 | 0.00 | 0.00 | 54 | 1015.6 |
| 20260505000555 | 17 | 180 | 4.8 | 12.9 | 0.00 | 0.00 | 0.00 | 54 | 1015.5 |
| 20260505000107 | 17 | 181 | 6.4 | 12.9 | 0.00 | 0.00 | 0.00 | 53 | 1015.5 |
| 20260504235553 | 17 | 174 | 6.4 | 17.7 | 0.00 | 0.00 | 0.00 | 52 | 1015.5 |
| 20260504235053 | 18 | 175 | 12.9 | 19.3 | 0.00 | 0.00 | 0.00 | 51 | 1015.5 |
| 20260504234553 | 18 | 173 | 6.4 | 16.1 | 0.00 | 0.00 | 0.00 | 52 | 1015.5 |
| 20260504234052 | 18 | 180 | 11.3 | 19.3 | 0.00 | 0.00 | 0.00 | 50 | 1015.5 |
| 20260504233552 | 18 | 203 | 11.3 | 19.3 | 0.00 | 0.00 | 0.00 | 49 | 1015.4 |
| 20260504233052 | 18 | 225 | 9.7 | 14.5 | 0.00 | 0.00 | 0.00 | 50 | 1015.3 |
| 20260504232552 | 19 | 185 | 4.8 | 14.5 | 0.00 | 0.00 | 0.00 | 50 | 1015.3 |
| 20260504232051 | 19 | 175 | 9.7 | 16.1 | 0.00 | 0.00 | 0.00 | 49 | 1015.3 |
| 20260504231620 | 19 | 171 | 9.7 | 16.1 | 0.00 | 0.00 | 0.00 | 49 | 1015.2 |
| 20260504231051 | 19 | 232 | 11.3 | 27.4 | 0.00 | 0.00 | 0.00 | 49 | 1015.2 |
| 20260504230551 | 19 | 168 | 9.7 | 29.0 | 0.00 | 0.00 | 0.00 | 49 | 1015.1 |
| 20260504230051 | 20 | 198 | 9.7 | 29.0 | 0.00 | 0.00 | 0.00 | 47 | 1015.1 |
| 20260504225551 | 20 | 175 | 11.3 | 17.7 | 0.00 | 0.00 | 0.00 | 47 | 1015.2 |
| 20260504225054 | 20 | 171 | 9.7 | 19.3 | 0.00 | 0.00 | 0.00 | 47 | 1015.3 |
| 20260504224550 | 20 | 198 | 12.9 | 19.3 | 0.00 | 0.00 | 0.00 | 46 | 1015.2 |
| 20260504224049 | 20 | 187 | 9.7 | 19.3 | 0.00 | 0.00 | 0.00 | 46 | 1015.1 |
| 20260504223549 | 20 | 187 | 8.0 | 19.3 | 0.00 | 0.00 | 0.00 | 46 | 1015.1 |
| 20260504223049 | 20 | 188 | 11.3 | 19.3 | 0.00 | 0.00 | 0.00 | 46 | 1015.2 |
| 20260504222549 | 20 | 180 | 9.7 | 17.7 | 0.00 | 0.00 | 0.00 | 46 | 1015.2 |
| 20260504222048 | 20 | 198 | 12.9 | 17.7 | 0.00 | 0.00 | 0.00 | 45 | 1015.2 |
| 20260504221625 | 20 | 190 | 9.7 | 19.3 | 0.00 | 0.00 | 0.00 | 46 | 1015.2 |
| 20260504221048 | 20 | 211 | 8.0 | 19.3 | 0.00 | 0.00 | 0.00 | 47 | 1015.2 |
| 20260504220547 | 20 | 187 | 8.0 | 22.5 | 0.00 | 0.00 | 0.00 | 48 | 1015.2 |
| 20260504220047 | 20 | 187 | 12.9 | 25.7 | 0.00 | 0.00 | 0.00 | 46 | 1015.2 |
| 20260504215546 | 20 | 169 | 8.0 | 17.7 | 0.00 | 0.00 | 0.00 | 47 | 1015.3 |
| 20260504215045 | 20 | 179 | 9.7 | 17.7 | 0.00 | 0.00 | 0.00 | 47 | 1015.3 |
| 20260504214545 | 20 | 187 | 8.0 | 16.1 | 0.00 | 0.00 | 0.00 | 46 | 1015.3 |
| 20260504214044 | 20 | 190 | 6.4 | 14.5 | 0.00 | 0.00 | 0.00 | 46 | 1015.4 |
| 20260504213544 | 20 | 186 | 6.4 | 19.3 | 0.00 | 0.00 | 0.00 | 47 | 1015.3 |
| 20260504213045 | 20 | 203 | 8.0 | 20.9 | 0.00 | 0.00 | 0.00 | 47 | 1015.4 |
| 20260504212545 | 20 | 202 | 11.3 | 20.9 | 0.00 | 0.00 | 0.00 | 48 | 1015.4 |
| 20260504212043 | 20 | 167 | 8.0 | 19.3 | 0.00 | 0.00 | 0.00 | 47 | 1015.4 |
| 20260504211542 | 20 | 171 | 8.0 | 20.9 | 0.00 | 0.00 | 0.00 | 49 | 1015.3 |
| 20260504211041 | 20 | 205 | 11.3 | 20.9 | 0.00 | 0.00 | 0.00 | 48 | 1015.5 |
| 20260504210543 | 20 | 182 | 6.4 | 19.3 | 0.00 | 0.00 | 0.00 | 50 | 1015.4 |
| 20260504210046 | 20 | 184 | 8.0 | 24.1 | 0.00 | 0.00 | 0.00 | 49 | 1015.5 |
| 20260504205542 | 20 | 207 | 14.5 | 19.3 | 0.00 | 0.00 | 0.00 | 48 | 1015.4 |
| 20260504205039 | 20 | 233 | 6.4 | 16.1 | 0.00 | 0.00 | 0.00 | 50 | 1015.5 |
| 20260504204540 | 20 | 180 | 8.0 | 22.5 | 0.00 | 0.00 | 0.00 | 49 | 1015.6 |
| 20260504204041 | 20 | 239 | 9.7 | 22.5 | 0.00 | 0.00 | 0.00 | 50 | 1015.6 |
| 20260504203539 | 21 | 265 | 12.9 | 22.5 | 0.00 | 0.00 | 0.00 | 47 | 1015.5 |
| 20260504203038 | 21 | 210 | 8.0 | 19.3 | 0.00 | 0.00 | 0.00 | 49 | 1015.5 |
| 20260504202537 | 21 | 274 | 8.0 | 25.7 | 0.00 | 0.00 | 0.00 | 49 | 1015.6 |
| 20260504202036 | 20 | 232 | 14.5 | 25.7 | 0.00 | 0.00 | 0.00 | 47 | 1015.6 |
| 20260504201535 | 20 | 242 | 17.7 | 30.6 | 0.00 | 0.00 | 0.00 | 48 | 1015.7 |
| 20260504201037 | 20 | 271 | 14.5 | 30.6 | 0.00 | 0.00 | 0.00 | 50 | 1015.9 |
| 20260504200534 | 20 | 265 | 12.9 | 27.4 | 0.00 | 0.00 | 0.00 | 49 | 1015.8 |
| 20260504200033 | 20 | 286 | 12.9 | 29.0 | 0.00 | 0.00 | 0.00 | 50 | 1015.8 |
| 20260504195534 | 20 | 250 | 12.9 | 30.6 | 0.00 | 0.00 | 0.00 | 51 | 1015.8 |
| 20260504195031 | 20 | 247 | 19.3 | 30.6 | 0.00 | 0.00 | 0.00 | 50 | 1016.1 |
| 20260504194531 | 20 | 209 | 14.5 | 33.8 | 0.00 | 0.00 | 0.00 | 51 | 1016.0 |
| 20260504194030 | 20 | 199 | 17.7 | 30.6 | 0.00 | 0.00 | 0.00 | 51 | 1016.2 |
| 20260504193631 | 20 | 219 | 11.3 | 24.1 | 0.00 | 0.00 | 0.00 | 52 | 1016.1 |
| 20260504193028 | 19 | 250 | 16.1 | 27.4 | 0.00 | 0.00 | 0.00 | 52 | 1016.3 |
| 20260504192527 | 20 | 290 | 12.9 | 27.4 | 0.00 | 0.00 | 0.00 | 52 | 1016.4 |
| 20260504192028 | 20 | 275 | 12.9 | 20.9 | 0.00 | 0.00 | 0.00 | 50 | 1016.5 |
| 20260504191537 | 20 | 281 | 12.9 | 24.1 | 0.00 | 0.00 | 0.00 | 51 | 1016.5 |
| 20260504191025 | 20 | 244 | 11.3 | 24.1 | 0.00 | 0.00 | 0.00 | 53 | 1016.7 |
| 20260504190523 | 19 | 270 | 9.7 | 22.5 | 0.00 | 0.00 | 0.00 | 53 | 1016.7 |
| 20260504190024 | 18 | 214 | 8.0 | 20.9 | 0.00 | 0.00 | 0.00 | 60 | 1016.9 |
| 20260504185520 | 18 | 270 | 11.3 | 20.9 | 0.00 | 0.00 | 0.00 | 55 | 1017.0 |
| 20260504185020 | 18 | 270 | 11.3 | 20.9 | 0.00 | 0.00 | 0.00 | 55 | 1017.0 |
| 20260504184538 | 18 | 265 | 11.3 | 20.9 | 0.00 | 0.00 | 0.00 | 53 | 1017.1 |
| 20260504184020 | 18 | 270 | 8.0 | 14.5 | 0.00 | 0.00 | 0.00 | 54 | 1017.0 |
| 20260504183518 | 18 | 292 | 9.7 | 17.7 | 0.00 | 0.00 | 0.00 | 55 | 1017.0 |
| 20260504183019 | 18 | 270 | 9.7 | 19.3 | 0.00 | 0.00 | 0.00 | 53 | 1017.1 |
| 20260504182522 | 18 | 223 | 12.9 | 25.7 | 0.00 | 0.00 | 0.00 | 55 | 1017.2 |
| 20260504182015 | 18 | 272 | 16.1 | 25.7 | 0.00 | 0.00 | 0.00 | 54 | 1017.2 |
| 20260504181518 | 18 | 267 | 17.7 | 25.7 | 0.00 | 0.00 | 0.00 | 55 | 1017.3 |
| 20260504181015 | 18 | 252 | 4.8 | 20.9 | 0.00 | 0.00 | 0.00 | 56 | 1017.3 |
| 20260504180514 | 18 | 273 | 9.7 | 20.9 | 0.00 | 0.00 | 0.00 | 56 | 1017.3 |
| 20260504180012 | 18 | 259 | 9.7 | 16.1 | 0.00 | 0.00 | 0.00 | 55 | 1017.3 |
| 20260504175513 | 18 | 263 | 8.0 | 22.5 | 0.00 | 0.00 | 0.00 | 57 | 1017.4 |
| 20260504175015 | 17 | 317 | 11.3 | 27.4 | 0.00 | 0.00 | 0.00 | 57 | 1017.5 |
| 20260504174511 | 18 | 224 | 16.1 | 25.7 | 0.00 | 0.00 | 0.00 | 56 | 1017.5 |
| 20260504174010 | 18 | 239 | 12.9 | 22.5 | 0.00 | 0.00 | 0.00 | 56 | 1017.5 |
| 20260504173508 | 17 | 260 | 14.5 | 27.4 | 0.00 | 0.00 | 0.00 | 56 | 1017.7 |
| 20260504173014 | 17 | 210 | 16.1 | 27.4 | 0.00 | 0.00 | 0.00 | 56 | 1017.7 |
| 20260504172507 | 17 | 235 | 11.3 | 19.3 | 0.00 | 0.00 | 0.00 | 56 | 1017.8 |
| 20260504172006 | 17 | 232 | 11.3 | 22.5 | 0.00 | 0.00 | 0.00 | 57 | 1017.8 |
| 20260504171505 | 17 | 248 | 11.3 | 25.7 | 0.00 | 0.00 | 0.00 | 59 | 1017.7 |
| 20260504171005 | 17 | 235 | 9.7 | 25.7 | 0.00 | 0.00 | 0.00 | 58 | 1017.8 |
| 20260504170504 | 17 | 244 | 9.7 | 24.1 | 0.00 | 0.00 | 0.00 | 62 | 1017.8 |
| 20260504151051 | 13 | 267 | 17.7 | 27.4 | 0.00 | 0.00 | 0.00 | 60 | 1019.1 |
| 20260504150552 | 13 | 267 | 11.3 | 20.9 | 0.00 | 0.00 | 0.00 | 59 | 1019.0 |
| 20260504141049 | 14 | 254 | 12.9 | 25.7 | 0.00 | 0.00 | 0.00 | 56 | 1019.3 |
| 20260504140546 | 13 | 215 | 14.5 | 24.1 | 0.00 | 0.00 | 0.00 | 56 | 1019.1 |
| 20260504130532 | 11 | 285 | 8.0 | 25.7 | 0.00 | 0.00 | 0.00 | 62 | 1019.2 |
| 20260504110515 | 7 | 249 | 8.0 | 17.7 | 0.00 | 0.00 | 0.00 | 69 | 1018.8 |
| 20260504100510 | 4 | 259 | 0.0 | 3.2 | 0.00 | 0.00 | 0.00 | 79 | 1018.9 |